THOR ABLESTAR DEB, 3592

Orbit data source: Space-Track

THOR ABLESTAR DEB, 3592 is space debris in LEO originally from a launch on Thu, 24 Jun 1965 UTC launched from the Air Force Western Test Range (AFWTR). Debris objects in space refer to the collection of defunct objects orbiting the Earth. Examples of debris include non-operational satellites, rocket bodies, and fragments generated from explosions, collisions, or faulty payload assembly.

Loading next visibility...
Identifier
3592, 1965-048F
Orbit
LEO
Country
Flag of USUS
Related business
Manufacturer
Unknown
Mission
Spacecraft
Bus & Motor
Unknown
Mass
Unknown
Launch date (UTC)
1965-06-24 (60 years ago)
Launch vehicle
Unknown
Launch site
Air Force Western Test Range (AFWTR)
Object type
Payload
Rocket body
Debris
Shape & HBR
Unknown shape, 0.1 m
Radar Cross Section
Small (<0.1 m²)

Expand to show TLE details & history
Last TLE update: 21 hours ago

TLE from 21 hours ago
0 THOR ABLESTAR DEB
1  3592U 65048F   25294.94569730  .00000429  00000-0  53338-3 0  9997
2  3592  89.8752 290.7665 0059264 306.1933 113.7740 13.62561139987527
Epoch: 2025-10-21T22:41Z
TLE epoch observation values (Epoch: 2025-10-21T22:41:48.246Z)
Latitude
60.67592°
Longitude
-80.08987°
Altitude
1,054.744 km
Speed
7.321 km/s
True Right ascension
19h 23m 57s
True Declination
60° 32' 05"
Sunlit
Object was in daylight at epoch
Visualization orbit readout
Latitude
Unknown
Longitude
Unknown
Altitude
Unknown
Speed
Unknown
Apparent Right ascension
Unknown
Apparent Declination
Unknown
Sunlit
N/A
Visualization observer readout
Local Sidereal Time
14:38:39
Azimuth
Unknown
Elevation
Unknown
Doppler factor
Unknown
Orbital elements
Apogee altitude
1,067.295 km
Perigee altitude
979.566 km
Semi-major axis
7,401.567 km
Eccentricity
0.00593
Inclination
89.8752°
RAAN
290.7665°
Arg. of periapsis
306.1933°
True anomaly
114.39362°
Mean anomaly
113.774°
Eccentric anomaly
114.084°
Mean motion
3.40846 °/min
Orbital period
105.62 mins
BSTAR
0.00053338
Loading maneuver chart data...
Computing Atmospheric mass density...

Documentation

Showing up to 5 results
|